TimePST,TemperatureF,Dew PointF,Humidity,Sea Level PressureIn,VisibilityMPH,Wind Direction,Wind SpeedMPH,Gust SpeedMPH,PrecipitationIn,Events,Conditions,WindDirDegrees,DateUTC
12:18 AM,30.2,30.2,100,30.14,1.5,Calm,Calm,-,N/A,,Overcast,0,2013-12-01 08:18:00
12:53 AM,30.9,30.0,96,30.16,1.0,North,3.5,-,N/A,,Overcast,350,2013-12-01 08:53:00
1:32 AM,30.2,30.2,100,30.10,2.0,Calm,Calm,-,N/A,,Overcast,0,2013-12-01 09:32:00
1:49 AM,30.2,30.2,100,30.09,1.8,Calm,Calm,-,N/A,,Overcast,0,2013-12-01 09:49:00
1:53 AM,30.9,30.9,100,30.13,1.5,Calm,Calm,-,N/A,,Overcast,0,2013-12-01 09:53:00
2:22 AM,30.2,30.2,100,30.08,2.0,Calm,Calm,-,N/A,,Overcast,0,2013-12-01 10:22:00
2:49 AM,30.2,30.2,100,30.06,1.2,Calm,Calm,-,N/A,,Overcast,0,2013-12-01 10:49:00
2:53 AM,30.9,30.9,100,30.10,0.8,Calm,Calm,-,N/A,,Overcast,0,2013-12-01 10:53:00
3:37 AM,30.2,30.2,100,30.02,0.2,Calm,Calm,-,0.00,Fog,Light Freezing Fog,0,2013-12-01 11:37:00
3:53 AM,30.9,30.9,100,30.05,0.2,Calm,Calm,-,0.00,Fog,Light Freezing Fog,0,2013-12-01 11:53:00
4:11 AM,30.2,30.2,100,29.99,0.2,Calm,Calm,-,0.00,Fog-Rain,Light Freezing Rain,0,2013-12-01 12:11:00
4:42 AM,30.2,30.2,100,29.96,0.2,SSE,3.5,-,0.00,Fog,Light Freezing Fog,150,2013-12-01 12:42:00
4:53 AM,30.9,30.9,100,30.00,0.2,Calm,Calm,-,0.00,Fog,Light Freezing Fog,0,2013-12-01 12:53:00
5:12 AM,30.2,30.2,100,29.94,0.5,Calm,Calm,-,0.00,Fog,Light Freezing Fog,0,2013-12-01 13:12:00
5:22 AM,30.2,30.2,100,29.93,0.2,Calm,Calm,-,0.00,Fog,Light Freezing Fog,0,2013-12-01 13:22:00
5:53 AM,30.9,30.0,96,29.96,0.5,Calm,Calm,-,0.00,Fog,Light Freezing Fog,0,2013-12-01 13:53:00
6:10 AM,30.2,30.2,100,29.91,0.2,Calm,Calm,-,N/A,Fog,Light Freezing Fog,0,2013-12-01 14:10:00
6:26 AM,30.2,30.2,100,29.89,0.5,Calm,Calm,-,N/A,Fog,Light Freezing Fog,0,2013-12-01 14:26:00
6:37 AM,30.2,30.2,100,29.88,0.2,Calm,Calm,-,N/A,Fog,Light Freezing Fog,0,2013-12-01 14:37:00
6:53 AM,30.9,30.0,96,29.92,0.5,Calm,Calm,-,N/A,Fog,Light Freezing Fog,0,2013-12-01 14:53:00
7:38 AM,30.2,30.2,100,29.85,1.2,Calm,Calm,-,N/A,,Overcast,0,2013-12-01 15:38:00
7:48 AM,30.2,30.2,100,29.85,0.8,Calm,Calm,-,N/A,,Overcast,0,2013-12-01 15:48:00
7:53 AM,30.9,30.0,96,29.89,0.5,Calm,Calm,-,N/A,Fog,Light Freezing Fog,0,2013-12-01 15:53:00
8:10 AM,30.2,30.2,100,29.84,0.2,SSW,4.6,-,N/A,Fog,Light Freezing Fog,200,2013-12-01 16:10:00
8:39 AM,30.2,30.2,100,29.80,0.5,SSW,12.7,-,N/A,Fog,Light Freezing Fog,210,2013-12-01 16:39:00
8:53 AM,30.0,30.0,100,29.85,0.2,SSW,5.8,-,N/A,Fog,Light Freezing Fog,200,2013-12-01 16:53:00
9:51 AM,32.0,30.2,93,29.82,1.0,Calm,Calm,-,N/A,,Overcast,0,2013-12-01 17:51:00
9:53 AM,32.0,30.9,96,29.86,1.0,Calm,Calm,-,N/A,,Overcast,0,2013-12-01 17:53:00
10:01 AM,32.0,30.2,93,29.82,0.5,NE,4.6,-,N/A,Fog,Fog,40,2013-12-01 18:01:00
10:23 AM,32.0,30.2,93,29.83,1.5,NNE,10.4,-,N/A,,Overcast,20,2013-12-01 18:23:00
10:53 AM,32.0,30.9,96,29.86,1.8,NNE,6.9,-,N/A,,Overcast,20,2013-12-01 18:53:00
11:03 AM,32.0,30.2,93,29.82,2.5,NNE,4.6,-,N/A,,Overcast,30,2013-12-01 19:03:00
11:17 AM,32.0,32.0,100,29.81,3.0,NE,3.5,-,N/A,,Overcast,50,2013-12-01 19:17:00
11:53 AM,33.1,32.0,96,29.85,4.0,NNE,8.1,-,N/A,,Overcast,30,2013-12-01 19:53:00
12:53 PM,35.1,33.1,92,29.85,4.0,ENE,3.5,-,N/A,,Mostly Cloudy,70,2013-12-01 20:53:00
1:10 PM,35.6,33.8,93,29.81,4.0,ENE,3.5,-,N/A,,Scattered Clouds,70,2013-12-01 21:10:00
1:53 PM,37.0,33.1,86,29.83,5.0,NNE,3.5,-,N/A,,Clear,30,2013-12-01 21:53:00
2:53 PM,37.0,34.0,89,29.83,5.0,Variable,5.8,-,N/A,,Clear,0,2013-12-01 22:53:00
3:53 PM,35.1,33.1,92,29.82,4.0,NE,3.5,-,N/A,,Clear,40,2013-12-01 23:53:00
4:53 PM,34.0,32.0,92,29.79,4.0,Calm,Calm,-,N/A,,Mostly Cloudy,0,2013-12-02 00:53:00
5:53 PM,33.1,32.0,96,29.78,3.0,SSE,3.5,-,N/A,,Overcast,150,2013-12-02 01:53:00
6:03 PM,33.8,32.0,93,29.73,2.5,Calm,Calm,-,N/A,,Overcast,0,2013-12-02 02:03:00
6:13 PM,32.0,30.2,93,29.72,2.0,SW,4.6,-,N/A,,Overcast,220,2013-12-02 02:13:00
6:20 PM,32.0,30.2,93,29.72,2.5,WSW,4.6,-,N/A,,Mostly Cloudy,250,2013-12-02 02:20:00
6:46 PM,33.8,32.0,93,29.70,3.0,Variable,3.5,-,N/A,,Partly Cloudy,0,2013-12-02 02:46:00
6:53 PM,34.0,32.0,92,29.73,5.0,South,3.5,-,N/A,,Clear,180,2013-12-02 02:53:00
7:53 PM,41.0,37.0,86,29.69,10.0,SW,10.4,-,N/A,,Clear,230,2013-12-02 03:53:00
8:53 PM,41.0,37.9,89,29.67,10.0,SW,11.5,-,N/A,,Clear,220,2013-12-02 04:53:00
9:53 PM,42.1,37.9,85,29.65,10.0,SW,10.4,-,N/A,,Clear,220,2013-12-02 05:53:00
10:53 PM,45.0,37.9,76,29.64,10.0,SW,16.1,26.5,N/A,,Clear,230,2013-12-02 06:53:00
11:53 PM,42.1,35.1,76,29.63,10.0,WSW,10.4,-,N/A,,Clear,240,2013-12-02 07:53:00